マクノート彗星

C/2009 K5 ( McNaught )

English version
Home page
Updated on November 8, 2011

---------------------------------------------------------------------

・ プロフィール

発見日 2009年5月27日
発見光度 17.7等
発見者 R. H. McNaught (Siding Spring)

・ 写真集

・ 軌道要素

Epoch 2010 May 4.0 TT = JDT 2455320.5
T 2010 Apr. 30.02336 TT                                 MPC
q   1.4223949            (2000.0)            P               Q
z  -0.0005905      Peri.   66.17301     -0.29950886     +0.09770467
 +/-0.0000002      Node   257.85586     -0.67324335     +0.68320580
e   1.0008400      Incl.  103.87942     +0.67604573     +0.72365988
From 2301 observations 2009 May 27-2011 Oct. 28, mean residual 0".5.

・ 星図

・ 光度変化

        m1 = 5.0 + 5 logΔ + 14.5 log r(t - 20)

---------------------------------------------------------------------

軌道要素はM.P.E.C. 2011-V31に掲載されたものです。
星図はステラナビゲータ Ver.8 (アストロアーツ) で作成したものです。
光度グラフはComet for Windowsで作成したものです。

---------------------------------------------------------------------

Copyright(C) Seiichi Yoshida (comet@aerith.net). All rights reserved.